This is the latest recevied weather packets stored in our database for station/object N7YET. If no packets are shown the sender has not sent any weather packets the latest 1 day(s).
| Time | Temp. | Humidity | Pressure | Rain* | Wind** | Luminosity | Snow |
|---|---|---|---|---|---|---|---|
| 1778016293 | 13.33° C | 28% | 1231.9 hPa | 0 mm | 5.36 m/s, 8° | - | - |
| 1778015692 | 12.78° C | 29% | 1231.9 hPa | 0 mm | 5.81 m/s, 20° | - | - |
| 1778015091 | 12.78° C | 29% | 1231.9 hPa | 0 mm | 5.81 m/s, 1° | - | - |
| 1778014491 | 12.78° C | 29% | 1231.9 hPa | 0 mm | 5.36 m/s, 2° | - | - |
| 1778013890 | 13.33° C | 30% | 1231.9 hPa | 0 mm | 4.92 m/s, 6° | - | - |
| 1778013289 | 13.33° C | 30% | 1231.9 hPa | 0 mm | 5.36 m/s, 20° | - | - |
| 1778012689 | 12.78° C | 30% | 1231.9 hPa | 0 mm | 5.36 m/s, 17° | - | - |
| 1778012088 | 12.78° C | 30% | 1231.9 hPa | 0 mm | 4.47 m/s, 9° | - | - |
| 1778011487 | 12.78° C | 30% | 1231.9 hPa | 0 mm | 4.47 m/s, 348° | - | - |
| 1778010887 | 12.78° C | 30% | 1231.9 hPa | 0 mm | 4.92 m/s, 353° | - | - |
| 1778010287 | 13.33° C | 31% | 1231.9 hPa | 0 mm | 3.58 m/s, 11° | - | - |
| 1778009686 | 13.33° C | 31% | 1231.9 hPa | 0 mm | 4.47 m/s, 17° | - | - |
| 1778009085 | 12.22° C | 31% | 1231.9 hPa | 0 mm | 4.47 m/s, 30° | - | - |
| 1778008485 | 11.67° C | 32% | 1231.9 hPa | 0 mm | 3.58 m/s, 18° | - | - |
| 1778007884 | 11.67° C | 32% | 1231.9 hPa | 0 mm | 3.58 m/s, 352° | - | - |
| 1778007283 | 11.67° C | 33% | 1231.9 hPa | 0 mm | 4.02 m/s, 14° | - | - |
| 1778006683 | 11.11° C | 33% | 1231.9 hPa | 0 mm | 3.58 m/s, 6° | - | - |
| 1778006082 | 10.56° C | 34% | 1231.9 hPa | 0 mm | 3.58 m/s, 1° | - | - |
| 1778005482 | 10.56° C | 34% | 1231.9 hPa | 0 mm | 3.58 m/s, 14° | - | - |
| 1778004881 | 10.56° C | 35% | 1231.9 hPa | 0 mm | 3.58 m/s, 30° | - | - |
| 1778004280 | 10° C | 36% | 1231.9 hPa | 0 mm | 2.68 m/s, 16° | - | - |
| 1778003680 | 10° C | 37% | 1231.9 hPa | 0 mm | 3.58 m/s, 11° | - | - |
| 1778003079 | 9.44° C | 37% | 1231.9 hPa | 0 mm | 2.24 m/s, 28° | - | - |
| 1778002479 | 9.44° C | 37% | 1231.9 hPa | 0 mm | 2.68 m/s, 26° | - | - |
| 1778001878 | 8.89° C | 38% | 1231.9 hPa | 0 mm | 3.13 m/s, 31° | - | - |
* Rain latest hour (hover to see other rain measurements)
** Current wind speed in m/s (hover to see current wind gust speed)